Terminal Aerodrome Forecast
Issued by NWS

Home | Current Version | Previous Version | Graphics & Text | Print | Product List | Glossary On
Versions: 1 2 3 4 5 6 7 8 9 10 11 12 13 14 15 16 17 18 19 20 21 22 23 24 25 26 27
000
FTUS43 KTOP 222300
TAFMHK
TAF
KMHK 222334Z 2300/2324 21012KT 6SM BR BKN010
     FM230700 20010KT 3SM -DZ BR OVC004
     FM230900 18007KT 3SM -DZ BR VCTS BKN006 OVC020CB
     FM231800 31018G28KT 5SM -RASN BR BKN015=

USA.gov is the U.S. government's official web portal to all federal, state and local government web resources and services.